This is the latest recevied weather packets stored in our database for station/object DO2HBA-6. If no packets are shown the sender has not sent any weather packets the latest 10 day(s).
| Time | Temp. | Humidity | Pressure | Rain* | Wind** | Luminosity | Snow |
|---|---|---|---|---|---|---|---|
| 1777980869 | 27.78° C | 29% | 1007.7 hPa | 0 mm | - | - | - |
| 1777980569 | 27.22° C | 28% | 1007.7 hPa | 0 mm | - | - | - |
| 1777980268 | 27.22° C | 27% | 1007.9 hPa | 0 mm | - | - | - |
| 1777979968 | 26.67° C | 27% | 1007.8 hPa | 0 mm | - | - | - |
| 1777979668 | 26.67° C | 26% | 1007.9 hPa | 0 mm | - | - | - |
| 1777979367 | 26.67° C | 26% | 1007.9 hPa | 0 mm | - | - | - |
| 1777979067 | 26.67° C | 25% | 1008 hPa | 0 mm | - | - | - |
| 1777978767 | 26.11° C | 25% | 1008 hPa | 0 mm | - | - | - |
| 1777978467 | 26.67° C | 24% | 1008 hPa | 0 mm | - | - | - |
| 1777978166 | 26.11° C | 22% | 1008.2 hPa | 0 mm | - | - | - |
| 1777977866 | 26.11° C | 23% | 1008.2 hPa | 0 mm | - | - | - |
| 1777977566 | 26.11° C | 21% | 1008.3 hPa | 0 mm | - | - | - |
| 1777977265 | 26.11° C | 21% | 1008.3 hPa | 0 mm | - | - | - |
| 1777976965 | 25.56° C | 21% | 1008.2 hPa | 0 mm | - | - | - |
| 1777976665 | 25.56° C | 18% | 1008.4 hPa | 0 mm | - | - | - |
| 1777976364 | 25.56° C | 18% | 1008.4 hPa | 0 mm | - | - | - |
| 1777976064 | 25.56° C | 18% | 1008.5 hPa | 0 mm | - | - | - |
| 1777975764 | 25.56° C | 16% | 1008.5 hPa | 0 mm | - | - | - |
| 1777975464 | 25° C | 17% | 1008.5 hPa | 0 mm | - | - | - |
| 1777975163 | 25° C | 16% | 1008.7 hPa | 0 mm | - | - | - |
| 1777974863 | 25° C | 16% | 1008.7 hPa | 0 mm | - | - | - |
| 1777974563 | 24.44° C | 14% | 1008.6 hPa | 0 mm | - | - | - |
| 1777974262 | 24.44° C | 14% | 1008.6 hPa | 0 mm | - | - | - |
| 1777973966 | 24.44° C | - | - | 0 mm | - | - | - |
| 1777973962 | 24.44° C | 12% | 1008.6 hPa | 0 mm | - | - | - |
* Rain latest hour (hover to see other rain measurements)
** Current wind speed in m/s (hover to see current wind gust speed)